This is the latest recevied weather packets stored in our database for station/object EA1IQY-10. If no packets are shown the sender has not sent any weather packets the latest 10 day(s).
| Time | Temp. | Humidity | Pressure | Rain* | Wind** | Luminosity | Snow |
|---|---|---|---|---|---|---|---|
| 1777624637 | 20.56° C | 100% | 1008.3 hPa | - | - | - | - |
| 1777623737 | 18.89° C | 100% | 1008.3 hPa | - | - | - | - |
| 1777622837 | 17.22° C | 100% | 1008.2 hPa | - | - | - | - |
| 1777621977 | 17.22° C | 100% | 1008.1 hPa | - | - | - | - |
| 1777621937 | 17.22° C | 100% | 1008.1 hPa | - | - | - | - |
| 1777621037 | 17.22° C | 100% | 1008.1 hPa | - | - | - | - |
| 1777620137 | 16.67° C | 100% | 1008.2 hPa | - | - | - | - |
| 1777619236 | 14.44° C | 100% | 1008.2 hPa | - | - | - | - |
| 1777618336 | 16.11° C | 100% | 1007.9 hPa | - | - | - | - |
| 1777617436 | 17.78° C | 100% | 1007.8 hPa | - | - | - | - |
| 1777616536 | 16.11° C | 100% | 1007.7 hPa | - | - | - | - |
| 1777615635 | 18.33° C | 100% | 1007.7 hPa | - | - | - | - |
| 1777614735 | 15° C | 100% | 1007.6 hPa | - | - | - | - |
| 1777613835 | 17.22° C | 100% | 1007.7 hPa | - | - | - | - |
| 1777612935 | 16.67° C | 100% | 1007.7 hPa | - | - | - | - |
| 1777612035 | 17.78° C | 100% | 1007.7 hPa | - | - | - | - |
| 1777611134 | 13.33° C | 100% | 1007.7 hPa | - | - | - | - |
| 1777610234 | 16.11° C | 100% | 1007.7 hPa | - | - | - | - |
| 1777609334 | 12.78° C | 100% | 1007.8 hPa | - | - | - | - |
| 1777608434 | 16.67° C | 100% | 1007.9 hPa | - | - | - | - |
| 1777607534 | 12.22° C | 100% | 1008 hPa | - | - | - | - |
| 1777606634 | 16.67° C | 100% | 1007.9 hPa | - | - | - | - |
| 1777605734 | 17.78° C | 100% | 1008 hPa | - | - | - | - |
| 1777604834 | 16.67° C | 100% | 1007.9 hPa | - | - | - | - |
| 1777603933 | 15.56° C | 100% | 1007.7 hPa | - | - | - | - |
* Rain since midnight (hover to see other rain measurements)
** Current wind speed in m/s (hover to see current wind gust speed)